Location: *
(32.3758°S, 63.1185°E)
Time: 16:53:15
(UTC+00:00)

SJ-11-01 - Pass Details

Date: 02 June 2023
Orbit: 682 x 696 km, 97.9° (Epoch: 23 September)

Event Time Altitude Azimuth Distance (km) Brightness Sun altitude
Rises 13:52:46 0° 169° (SSE) 3,077 7.3 -13.1°
Reaches altitude 10° 13:55:01 10° 168° (SSE) 2,154 6.5 -13.6°
Maximum altitude 13:59:45 90° 206° (SSW) 696 4.3 -14.5°
Drops below altitude 10° 14:04:26 10° 347° (NNW) 2,132 7.2 -15.5°
Sets 14:06:39 0° 347° (NNW) 3,042 8.0 -15.9°
